EW0531 Weather Reports


time (UTC)temp
C
wind
direction
speed
KPH
gust
KPH
rain 1hr
cm
rain 24hr
cm
rain mn
cm
humidity
%
barometer
mb
20260502164035 13 106 8.0 16.1 0.00 0.51 0.51 82 1012.4
20260502163535 13 70 4.8 14.5 0.00 0.51 0.51 83 1012.5
20260502163054 13 157 6.4 14.5 0.00 0.51 0.51 84 1012.4
20260502162536 13 155 6.4 14.5 0.00 0.51 0.51 84 1012.4
20260502162035 13 150 4.8 16.1 0.00 0.51 0.51 85 1012.6
20260502161554 13 149 4.8 16.1 0.00 0.51 0.51 85 1012.7
20260502161035 13 157 3.2 14.5 0.00 0.51 0.51 87 1012.7
20260502160537 13 144 3.2 14.5 0.00 0.51 0.51 87 1012.7
20260502152039 12 0 0.0 6.4 0.03 0.51 0.51 87 1013.1
20260502151604 12 140 1.6 9.7 0.03 0.51 0.51 86 1013.2
20260502151041 12 144 0.0 9.7 0.05 0.51 0.51 86 1013.2
20260502150538 12 133 3.2 9.7 0.08 0.51 0.51 86 1013.3
20260502130542 16 155 3.2 11.3 0.00 0.00 0.00 70 1014.6
20260502123537 17 86 4.8 14.5 0.00 0.00 0.00 55 1014.9
20260502123048 17 134 6.4 14.5 0.00 0.00 0.00 56 1015.0
20260502122538 17 132 6.4 12.9 0.00 0.00 0.00 56 1015.1
20260502122038 17 164 3.2 12.9 0.00 0.00 0.00 57 1015.3
20260502121554 17 159 6.4 12.9 0.00 0.00 0.00 56 1015.4
20260502121036 17 142 3.2 12.9 0.00 0.00 0.00 56 1015.5
20260502120535 17 111 4.8 11.3 0.00 0.00 0.00 54 1015.6
20260502115533 17 136 4.8 19.3 0.00 0.00 0.00 55 1015.8
20260502115034 17 155 6.4 16.1 0.00 0.00 0.00 55 1015.7
20260502114554 17 103 6.4 12.9 0.00 0.00 0.00 56 1015.8
20260502114034 17 150 3.2 14.5 0.00 0.00 0.00 60 1015.9
20260502113534 17 143 6.4 14.5 0.00 0.00 0.00 60 1016.0
20260502113054 17 118 6.4 14.5 0.00 0.00 0.00 56 1016.1
20260502112533 17 127 4.8 17.7 0.00 0.00 0.00 59 1016.1
20260502112036 17 115 8.0 17.7 0.00 0.00 0.00 56 1016.1
20260502111554 17 136 4.8 16.1 0.00 0.00 0.00 58 1016.1
20260502111036 17 213 6.4 16.1 0.00 0.00 0.00 61 1016.1
20260502110535 17 151 8.0 16.1 0.00 0.00 0.00 61 1016.1
20260502110054 17 190 6.4 16.1 0.00 0.00 0.00 63 1016.2
20260502105535 17 159 4.8 11.3 0.00 0.00 0.00 62 1016.2
20260502105034 17 154 4.8 11.3 0.00 0.00 0.00 59 1016.2
20260502104554 17 168 4.8 12.9 0.00 0.00 0.00 60 1016.3
20260502104033 17 185 4.8 12.9 0.00 0.00 0.00 63 1016.4
20260502103534 17 150 4.8 14.5 0.00 0.00 0.00 64 1016.5
20260502103051 17 187 6.4 14.5 0.00 0.00 0.00 65 1016.6
20260502102534 17 134 4.8 14.5 0.00 0.00 0.00 65 1016.8
20260502102033 17 199 3.2 12.9 0.00 0.00 0.00 68 1016.8
20260502101556 16 150 4.8 12.9 0.00 0.00 0.00 70 1016.9
20260502101035 16 139 3.2 11.3 0.00 0.00 0.00 71 1017.1
20260502100534 16 186 4.8 14.5 0.00 0.00 0.00 72 1017.1
20260502091034 15 86 3.2 11.3 0.00 0.00 0.00 74 1017.6
20260502090536 15 140 3.2 9.7 0.00 0.00 0.00 75 1017.7
20260502071033 12 0 1.6 4.8 0.00 0.00 0.00 87 1018.5
20260502070533 12 0 0.0 4.8 0.00 0.00 0.00 87 1018.7
20260502070052 11 31 1.6 4.8 0.00 0.00 0.00 88 1018.5
20260502065536 11 26 1.6 4.8 0.00 0.00 0.00 88 1018.5
20260502065035 11 0 0.0 4.8 0.00 0.00 0.00 88 1018.7
20260502064542 11 0 0.0 0.0 0.00 0.00 0.00 89 1018.6
20260502064034 11 0 0.0 0.0 0.00 0.00 0.00 88 1018.6
20260502063537 11 0 0.0 4.8 0.00 0.00 0.00 89 1018.6
20260502063046 10 0 0.0 4.8 0.00 0.00 0.00 89 1018.5
20260502062538 10 0 0.0 4.8 0.00 0.00 0.00 88 1018.4
20260502062033 10 0 0.0 4.8 0.00 0.00 0.00 88 1018.3
20260502061547 10 0 0.0 4.8 0.00 0.00 0.00 88 1018.3
20260502061033 10 0 0.0 3.2 0.00 0.00 0.00 88 1018.4
20260502060534 10 0 0.0 3.2 0.00 0.00 0.00 88 1018.4
20260502060045 10 0 0.0 3.2 0.00 0.00 0.00 88 1018.6
20260502055536 10 0 0.0 0.0 0.00 0.00 0.00 88 1018.5
20260502055035 10 0 0.0 0.0 0.00 0.00 0.00 88 1018.6
20260502054545 10 0 0.0 0.0 0.00 0.00 0.00 88 1018.6
20260502054033 10 0 0.0 0.0 0.00 0.00 0.00 88 1018.5
20260502053534 10 0 0.0 0.0 0.00 0.00 0.00 88 1018.5
20260502053059 10 0 0.0 0.0 0.00 0.00 0.00 88 1018.5
20260502052534 10 0 0.0 0.0 0.00 0.00 0.00 88 1018.6
20260502052033 10 0 0.0 1.6 0.00 0.00 0.00 88 1018.5
20260502051604 10 0 0.0 3.2 0.00 0.00 0.00 87 1018.5
20260502051037 10 0 0.0 3.2 0.00 0.00 0.00 87 1018.5
20260502050537 10 0 0.0 3.2 0.00 0.00 0.00 87 1018.5
20260502050046 10 0 0.0 3.2 0.00 0.00 0.00 87 1018.6
20260502045537 10 0 0.0 0.0 0.00 0.00 0.00 87 1018.6
20260502045039 10 0 0.0 1.6 0.00 0.00 0.00 87 1018.7
20260502044549 10 0 0.0 4.8 0.00 0.00 0.00 87 1018.6
20260502044037 10 0 0.0 4.8 0.00 0.00 0.00 86 1018.7
20260502043539 10 85 0.0 0.0 0.00 0.00 0.00 86 1018.7
20260502043051 10 0 0.0 0.0 0.00 0.00 0.00 86 1018.6
20260502042541 11 0 0.0 0.0 0.00 0.00 0.00 86 1018.6
20260502042037 11 0 0.0 1.6 0.00 0.00 0.00 86 1018.6
20260502041621 11 0 0.0 1.6 0.00 0.00 0.00 86 1018.5
20260502041040 11 0 0.0 0.0 0.00 0.00 0.00 86 1018.5
20260502040537 11 0 0.0 0.0 0.00 0.00 0.00 86 1018.5
20260502040047 11 0 0.0 0.0 0.00 0.00 0.00 86 1018.7
20260502035537 11 0 0.0 0.0 0.00 0.00 0.00 86 1018.7
20260502035037 11 0 0.0 0.0 0.00 0.00 0.00 86 1018.8
20260502034545 11 0 0.0 0.0 0.00 0.00 0.00 86 1018.9
20260502034036 11 0 0.0 0.0 0.00 0.00 0.00 86 1018.9
20260502033540 11 0 0.0 0.0 0.00 0.00 0.00 86 1018.8
20260502033103 11 0 0.0 0.0 0.00 0.00 0.00 86 1018.9
20260502032537 11 0 0.0 1.6 0.00 0.00 0.00 86 1018.8
20260502032038 11 0 0.0 4.8 0.00 0.00 0.00 86 1019.0
20260502031548 11 0 0.0 4.8 0.00 0.00 0.00 86 1018.9
20260502031038 11 0 1.6 6.4 0.00 0.00 0.00 86 1019.0
20260502030538 11 310 0.0 6.4 0.00 0.00 0.00 85 1019.0
20260502030043 11 280 3.2 6.4 0.00 0.00 0.00 86 1019.0
20260502025537 11 0 1.6 6.4 0.00 0.00 0.00 86 1018.9
20260502025037 11 285 0.0 6.4 0.00 0.00 0.00 86 1019.0
20260502024545 11 336 0.0 6.4 0.00 0.00 0.00 86 1019.0
20260502024037 11 0 0.0 3.2 0.00 0.00 0.00 86 1019.3
20260502023537 11 0 0.0 4.8 0.00 0.00 0.00 86 1019.2
20260502023051 11 0 1.6 4.8 0.00 0.00 0.00 86 1019.3
20260502022537 11 0 0.0 0.0 0.00 0.00 0.00 86 1019.3
20260502022109 11 0 0.0 0.0 0.00 0.00 0.00 86 1019.4
20260502021546 11 0 0.0 0.0 0.00 0.00 0.00 86 1019.5
20260502021037 11 0 0.0 0.0 0.00 0.00 0.00 86 1019.4
20260502020534 11 0 0.0 0.0 0.00 0.00 0.00 86 1019.4
20260502020053 11 0 0.0 0.0 0.00 0.00 0.00 86 1019.5
20260502015535 11 0 0.0 0.0 0.00 0.00 0.00 86 1019.5
20260502015036 11 0 0.0 0.0 0.00 0.00 0.00 86 1019.6
20260502014548 11 0 0.0 0.0 0.00 0.00 0.00 86 1019.6
20260502014035 11 0 0.0 0.0 0.00 0.00 0.00 86 1019.6
20260502013534 11 0 0.0 0.0 0.00 0.00 0.00 86 1019.7
20260502013048 11 0 0.0 3.2 0.00 0.00 0.00 86 1019.7
20260502012534 11 0 0.0 3.2 0.00 0.00 0.00 86 1019.7
20260502012036 11 261 0.0 3.2 0.00 0.00 0.00 86 1019.8
20260502011547 11 0 0.0 0.0 0.00 0.00 0.00 86 1019.7
20260502011032 11 0 0.0 0.0 0.00 0.00 0.00 85 1019.8
20260502010535 11 0 0.0 0.0 0.00 0.00 0.00 85 1019.9
20260502010042 11 0 0.0 0.0 0.00 0.00 0.00 85 1019.8
20260502005535 11 0 0.0 0.0 0.00 0.00 0.00 84 1019.9
20260502005035 11 0 0.0 0.0 0.00 0.00 0.00 84 1019.9
20260502004546 11 0 0.0 0.0 0.00 0.00 0.00 84 1019.9
20260502004035 11 0 0.0 0.0 0.00 0.00 0.00 84 1020.0
20260502003534 11 0 0.0 0.0 0.00 0.00 0.00 84 1020.1
20260502003049 11 0 0.0 3.2 0.00 0.00 0.00 84 1020.1
20260502002535 11 0 0.0 3.2 0.00 0.00 0.00 83 1020.2
20260502002033 11 0 0.0 1.6 0.00 0.00 0.00 83 1020.2
20260502001557 11 0 0.0 4.8 0.00 0.00 0.00 83 1020.2
20260502001035 11 261 0.0 4.8 0.00 0.00 0.00 83 1020.3
20260502000535 11 261 0.0 6.4 0.00 0.00 0.00 83 1020.4
20260502000047 11 250 1.6 8.0 0.00 0.00 0.00 83 1020.3
20260501235533 11 246 0.0 9.7 0.00 0.00 0.00 83 1020.3
20260501235034 11 207 3.2 9.7 0.00 0.00 0.00 83 1020.3
20260501234547 11 214 4.8 11.3 0.00 0.00 0.00 83 1020.4
20260501234036 12 229 4.8 11.3 0.00 0.00 0.00 83 1020.5
20260501233535 12 234 4.8 11.3 0.00 0.00 0.00 83 1020.6
20260501233052 12 212 1.6 8.0 0.00 0.00 0.00 84 1020.6
20260501232534 12 0 0.0 0.0 0.00 0.00 0.00 84 1020.6
20260501232034 12 0 0.0 3.2 0.00 0.00 0.00 84 1020.7
20260501231558 12 0 0.0 4.8 0.00 0.00 0.00 84 1020.8
20260501231033 12 265 0.0 4.8 0.00 0.00 0.00 85 1020.7
20260501230534 12 297 1.6 6.4 0.00 0.00 0.00 85 1020.7
20260501230048 12 0 0.0 6.4 0.00 0.00 0.00 85 1020.9
20260501225534 12 261 1.6 9.7 0.00 0.00 0.00 85 1020.8
20260501225036 11 281 1.6 9.7 0.00 0.00 0.00 85 1020.9
20260501224548 12 281 3.2 11.3 0.00 0.00 0.00 85 1020.9
20260501224038 11 251 3.2 11.3 0.00 0.00 0.00 85 1021.0
20260501223534 11 267 1.6 6.4 0.00 0.00 0.00 85 1021.0
20260501223110 11 262 1.6 9.7 0.00 0.00 0.00 86 1020.9
20260501222540 11 298 3.2 9.7 0.00 0.00 0.00 86 1020.9
20260501222036 11 269 1.6 6.4 0.00 0.00 0.00 86 1021.0
20260501221548 11 257 0.0 11.3 0.00 0.00 0.00 86 1021.0
20260501221034 11 229 3.2 11.3 0.00 0.00 0.00 86 1020.9
20260501220536 11 264 1.6 11.3 0.00 0.00 0.00 86 1021.0
20260501220053 11 265 4.8 11.3 0.00 0.00 0.00 86 1021.0
20260501215533 11 233 3.2 11.3 0.00 0.00 0.00 85 1021.0
20260501215033 11 252 3.2 9.7 0.00 0.00 0.00 86 1020.9
20260501214554 11 254 1.6 6.4 0.00 0.00 0.00 86 1020.8
20260501214033 11 260 1.6 8.0 0.00 0.00 0.00 85 1020.8
20260501213533 11 250 3.2 11.3 0.00 0.00 0.00 85 1020.8
20260501213047 11 250 3.2 11.3 0.00 0.00 0.00 85 1020.8
20260501212534 11 223 4.8 11.3 0.00 0.00 0.00 85 1020.8
20260501212039 11 219 1.6 4.8 0.00 0.00 0.00 85 1020.8
20260501211547 11 250 1.6 4.8 0.00 0.00 0.00 85 1020.8
20260501211035 11 209 0.0 6.4 0.00 0.00 0.00 85 1020.7
20260501210533 11 0 1.6 6.4 0.00 0.00 0.00 84 1020.6
20260501210047 11 0 0.0 4.8 0.00 0.00 0.00 84 1020.7
20260501205534 11 210 0.0 4.8 0.00 0.00 0.00 84 1020.6
20260501205036 11 210 0.0 4.8 0.00 0.00 0.00 84 1020.6
20260501204548 12 0 0.0 4.8 0.00 0.00 0.00 83 1020.5
20260501204035 12 0 1.6 4.8 0.00 0.00 0.00 83 1020.5
20260501203534 12 0 1.6 4.8 0.00 0.00 0.00 83 1020.6
20260501203044 12 211 0.0 6.4 0.00 0.00 0.00 83 1020.5
20260501202534 12 211 1.6 6.4 0.00 0.00 0.00 83 1020.5
20260501202034 12 205 1.6 8.0 0.00 0.00 0.00 82 1020.5
20260501201546 12 0 3.2 9.7 0.00 0.00 0.00 82 1020.4
20260501201032 12 259 1.6 9.7 0.00 0.00 0.00 82 1020.5
20260501200536 12 222 4.8 9.7 0.00 0.00 0.00 82 1020.5
20260501200046 12 229 3.2 8.0 0.00 0.00 0.00 81 1020.4
20260501195537 12 240 3.2 6.4 0.00 0.00 0.00 81 1020.4
20260501195036 12 240 1.6 6.4 0.00 0.00 0.00 80 1020.3
20260501194543 12 0 1.6 8.0 0.00 0.00 0.00 80 1020.4
20260501194036 12 238 3.2 9.7 0.00 0.00 0.00 80 1020.3
20260501193535 12 213 3.2 12.9 0.00 0.00 0.00 80 1020.2
20260501193041 12 209 4.8 12.9 0.00 0.00 0.00 79 1020.3
20260501192536 13 185 3.2 11.3 0.00 0.00 0.00 79 1020.2
20260501192035 13 258 4.8 11.3 0.00 0.00 0.00 79 1020.1
20260501191545 13 238 6.4 14.5 0.00 0.00 0.00 78 1020.2
20260501191037 13 248 4.8 14.5 0.00 0.00 0.00 78 1020.1
20260501190538 13 242 4.8 14.5 0.00 0.00 0.00 77 1020.1
20260501190047 13 250 4.8 14.5 0.00 0.00 0.00 77 1020.2
20260501185537 13 218 4.8 14.5 0.00 0.00 0.00 76 1020.1
20260501185037 13 234 4.8 14.5 0.00 0.00 0.00 76 1020.1
20260501184551 13 254 4.8 11.3 0.00 0.00 0.00 76 1020.2
20260501184038 14 184 4.8 11.3 0.00 0.00 0.00 75 1020.1
20260501183542 14 237 4.8 11.3 0.00 0.00 0.00 75 1020.1
20260501183101 14 238 4.8 12.9 0.00 0.00 0.00 74 1020.1
20260501182538 14 224 6.4 14.5 0.00 0.00 0.00 74 1020.1
20260501182037 15 198 6.4 16.1 0.00 0.00 0.00 73 1020.0
20260501181558 15 219 6.4 17.7 0.00 0.00 0.00 73 1020.0
20260501181037 15 222 8.0 17.7 0.00 0.00 0.00 72 1020.0
20260501180537 15 234 4.8 14.5 0.00 0.00 0.00 72 1020.1
20260501180101 15 196 4.8 14.5 0.00 0.00 0.00 73 1020.0
20260501175538 15 181 4.8 14.5 0.00 0.00 0.00 73 1020.0
20260501175037 15 204 6.4 14.5 0.00 0.00 0.00 72 1019.9
20260501174603 15 261 8.0 16.1 0.00 0.00 0.00 72 1019.9
20260501174037 15 229 6.4 16.1 0.00 0.00 0.00 73 1019.9
20260501173537 15 213 4.8 14.5 0.00 0.00 0.00 72 1019.9
20260501173047 15 206 6.4 14.5 0.00 0.00 0.00 72 1020.0
20260501172537 15 235 8.0 16.1 0.00 0.00 0.00 72 1020.0
20260501172037 15 223 6.4 19.3 0.00 0.00 0.00 72 1020.0
20260501171554 15 228 8.0 19.3 0.00 0.00 0.00 72 1020.1
20260501171037 15 236 8.0 19.3 0.00 0.00 0.00 72 1020.1
20260501170539 15 224 9.7 19.3 0.00 0.00 0.00 72 1020.0
20260501170052 15 217 8.0 19.3 0.00 0.00 0.00 72 1020.0
20260501165538 15 217 8.0 19.3 0.00 0.00 0.00 72 1020.1
20260501165038 15 207 8.0 19.3 0.00 0.00 0.00 72 1020.1
20260501164546 15 254 6.4 19.3 0.00 0.00 0.00 72 1020.3